Content
SEND FEEDBACK

Daily
Averages
Monthly
Summary
United States of America

UMATAC, GUAM


Home > North America > United States > Guam
Elevation: 190 feet     Latitude: 13 17N     Longitude: 144 40E

WEATHER
 
SELECT A DAY
Number of Records: 351,895;   Date Range: 1/1/95 - 10/24/14
 
SHARE

PRINT THIS DATA

[ ← Previous Day ]
WEATHER ALMANAC - JULY 9, 2013
[ Next Day → ]
[ °C ]   °F
Weather ElementAverageHighLow
Temperature81.9 °F86 °F (11:55 am)78.8 °F (2:55 am)
Dewpoint77.4 °F78.8 °F (8:38 am)75.2 °F (6:47 am)
Humidity86.3 %96 % (11:55 pm)76 % (11:55 am)
Barometer29.76 in29.80 in (9:55 pm)29.73 in (2:55 am)
Wind Speed9.4 mph13.8 mph (8:55 am)
Wind Gust17.3 mph (11:43 pm)
Weather ElementAverage
Visibility10 mi
Wind DirectionSSE (161.2 °)

Weather ElementTotal
Precipitation---
Cooling Degree Days17.4 (Base 65)
Growing Degree Days32.4 (Base 50)
Averaged from 43 records on July 9, 2013
WEATHER CONDITIONS BREAKOUT
WIND DIRECTION BREAKOUT
WEATHER BY HOUR - JULY 9, 2013
[ °C ]   °F
Local TimeTemperatureDewpointHumidityBarometerVisibilityWind DirectionWind SpeedGust SpeedPrecipitationEventsConditions
1:55 AM79.0 °F76.6 °F92 %29.75 in10.0 miSSW (200°)8.1 mphClear
2:55 AM78.8 °F75.7 °F90 %29.73 in10.0 miSouth (190°)9.2 mphClear
3:55 AM79.3 °F75.9 °F89 %29.73 in10.0 miSouth (190°)8.1 mphPartly Cloudy
4:55 AM79.0 °F75.6 °F89 %29.73 in10.0 miSouth (190°)9.2 mphClear
5:55 AM79.0 °F75.6 °F89 %29.74 in10.0 miSouth (190°)10.4 mphScattered Clouds
6:47 AM78.8 °F75.2 °F89 %29.76 in10.0 miSouth (190°)6.9 mphMostly Cloudy
6:51 AM80.6 °F77.0 °F89 %29.75 in10.0 miSouth (180°)10.4 mphScattered Clouds
6:55 AM79.9 °F76.1 °F88 %29.75 in10.0 miSouth (180°)10.4 mphScattered Clouds
6:57 AM80.6 °F75.2 °F84 %29.75 in10.0 miSouth (180°)11.5 mphMostly Cloudy
7:18 AM80.6 °F77.0 °F89 %29.76 in10.0 miSouth (180°)10.4 mphScattered Clouds
7:20 AM82.4 °F77.0 °F84 %29.75 in10.0 miSouth (180°)10.4 mphMostly Cloudy
7:21 AM82.4 °F77.0 °F84 %29.75 in10.0 miSouth (180°)9.2 mphMostly Cloudy
7:25 AM82.4 °F77.0 °F84 %29.75 in10.0 miSouth (180°)11.5 mphMostly Cloudy
7:55 AM82.2 °F77.9 °F87 %29.75 in10.0 miSouth (180°)11.5 mphMostly Cloudy
8:05 AM82.4 °F77.0 °F84 %29.76 in10.0 miSouth (180°)11.5 mphScattered Clouds
8:38 AM84.2 °F78.8 °F84 %29.76 in10.0 miSouth (170°)10.4 mphMostly Cloudy
8:41 AM84.2 °F78.8 °F84 %29.76 in10.0 miSouth (170°)10.4 mphMostly Cloudy
8:55 AM83.5 °F78.1 °F84 %29.76 in10.0 miSSE (160°)13.8 mphMostly Cloudy
9:10 AM84.2 °F78.8 °F84 %29.76 in10.0 miSouth (170°)10.4 mphScattered Clouds
9:55 AM84.9 °F78.3 °F80 %29.77 in10.0 miSouth (180°)10.4 mphPartly Cloudy
10:31 AM84.2 °F78.8 °F84 %29.77 in10.0 miSouth (180°)10.4 mphMostly Cloudy
10:35 AM84.2 °F78.8 °F84 %29.77 in10.0 miSouth (170°)10.4 mphMostly Cloudy
10:55 AM85.6 °F78.8 °F80 %29.77 in10.0 miSouth (190°)10.4 mphMostly Cloudy
11:55 AM86.0 °F77.7 °F76 %29.76 in10.0 miSouth (170°)11.5 mphScattered Clouds
12:55 PM86.0 °F78.1 °F77 %29.75 in10.0 miSouth (170°)10.4 mphMostly Cloudy
1:55 PM85.5 °F78.4 °F79 %29.74 in10.0 miSSE (150°)10.4 mphScattered Clouds
2:55 PM85.6 °F78.3 °F78 %29.73 in10.0 miSouth (170°)10.4 mphClear
3:55 PM84.2 °F78.4 °F83 %29.73 in10.0 miSouth (170°)9.2 mphPartly Cloudy
4:55 PM83.5 °F77.4 °F82 %29.73 in10.0 miSSE (150°)9.2 mphClear
5:55 PM82.6 °F77.7 °F85 %29.74 in10.0 miSSE (160°)5.8 mphClear
6:55 PM81.3 °F77.7 °F89 %29.76 in10.0 miSE (130°)5.8 mphPartly Cloudy
7:10 PM80.6 °F77.0 °F89 %29.77 in10.0 miSE (140°)8.1 mphMostly Cloudy
7:18 PM80.6 °F77.0 °F89 %29.77 in10.0 miESE (110°)5.8 mphScattered Clouds
7:55 PM80.6 °F77.7 °F91 %29.78 in10.0 miESE (120°)6.9 mphScattered Clouds
8:55 PM80.8 °F77.2 °F89 %29.79 in10.0 miSE (130°)8.1 mphPartly Cloudy
9:55 PM80.6 °F77.2 °F89 %29.80 in10.0 miSE (140°)9.2 mphClear
10:24 PM80.6 °F77.0 °F89 %29.80 in10.0 miSE (130°)6.9 mphMostly Cloudy
10:51 PM80.6 °F77.0 °F89 %29.79 in10.0 miESE (120°)5.8 mphScattered Clouds
10:55 PM80.8 °F77.4 °F89 %29.79 in10.0 miSE (140°)6.9 mphScattered Clouds
11:38 PM80.6 °F77.0 °F89 %29.78 in10.0 miVariable5.8 mphMostly Cloudy
11:43 PM80.6 °F78.8 °F94 %29.78 in10.0 miSouth (170°)12.7 mph17.3 mphRainLight Rain
11:55 PM79.0 °F77.7 °F96 %29.78 in10.0 miSSE (150°)10.4 mph0.00 inRainLight Rain
11:57 PM78.8 °F77.0 °F94 %29.78 in10.0 miSSE (150°)8.1 mphMostly Cloudy
Hourly data recorded from PGUA, located miles away from Umatac, Guam







STORIES FROM OUR PARTNERS